STARLINK-1828, 46725

Orbit data source: Space-Track

STARLINK-1828, 46725 is a payload satellite owned by SpaceX/Seattle (US) in LEO that was launched on Sun, 18 Oct 2020 UTC via an FALCON 9 launch vehicle from the Air Force Eastern Test Range (AFETR). Payload-class satellites include a variety of spacecraft equipped with specific instruments for various scientific and technological missions. These include communications satellites like Starlink; space stations such as the ISS; scientific satellites like the Hubble; Earth observation satellites from companies like Planet Labs, Umbra, and HawkEye 360; GPS; miniature CubeSats for education and research; and military/defense satellites.

Loading next visibility...
Identifier
46725, 2020-073BH
Orbit
LEO
Country
Flag of USUS
Related business
Manufacturer
SpaceX/Seattle
Mission
Operational Commercial Communications
Bus & Motor
STARLINK, Unknown motor
Mass
260 kg wet, ~248 kg dry
Launch date (UTC)
2020-10-18 (5 years ago)
Launch vehicle
FALCON 9
Launch site
Air Force Eastern Test Range (AFETR)
Object type
Payload
Rocket body
Debris
Shape & HBR
Box + 1 Pan, 10.1 m
Radar Cross Section
13.562 m², Large (>1 m²)

Expand to show TLE details & history
Last TLE update: 7 hours ago

TLE from 7 hours ago
0 STARLINK-1828
1 46725U 20073BH  25355.25001156  .00055217  00000-0  26877-2 0  9998
2 46725  53.0541 248.3647 0001218  69.9884 285.4458 15.17868050  5837
Epoch: 2025-12-21T06:00Z
TLE epoch observation values (Epoch: 2025-12-21T06:00:00.998Z)
Latitude
-3.76031°
Longitude
65.47773°
Altitude
513.51 km
Speed
7.608 km/s
True Right ascension
16h 22m 11s
True Declination
-3° 44' 13"
Sunlit
Object was in daylight at epoch
Visualization orbit readout
Latitude
Unknown
Longitude
Unknown
Altitude
Unknown
Speed
Unknown
Apparent Right ascension
Unknown
Apparent Declination
Unknown
Sunlit
N/A
Visualization observer readout
Local Sidereal Time
12:05:16
Azimuth
Unknown
Elevation
Unknown
Doppler factor
Unknown
Orbital elements
Apogee altitude
513.397 km
Perigee altitude
511.718 km
Semi-major axis
6,890.694 km
Eccentricity
0.00012
Inclination
53.0541°
RAAN
248.3647°
Arg. of periapsis
69.9884°
True anomaly
285.43235°
Mean anomaly
285.4458°
Eccentric anomaly
285.43907°
Mean motion
3.79445 °/min
Orbital period
94.88 mins
BSTAR
0.0026877
Loading maneuver chart data...
Computing Atmospheric mass density...
Loading historical data...
Loading historical data...
Loading historical data...
Loading historical data...
Loading historical data...
Loading historical data...
Loading historical data...

Documentation

Showing up to 5 results
|